STARLINK-32265, 60415

Orbit data source: Space-Track

STARLINK-32265, 60415 is a payload satellite owned by SpaceX/Seattle (US) in LEO that was launched on Sat, 10 Aug 2024 UTC via an FALCON 9 launch vehicle from the Air Force Eastern Test Range (AFETR). Payload-class satellites include a variety of spacecraft equipped with specific instruments for various scientific and technological missions. These include communications satellites like Starlink; space stations such as the ISS; scientific satellites like the Hubble; Earth observation satellites from companies like Planet Labs, Umbra, and HawkEye 360; GPS; miniature CubeSats for education and research; and military/defense satellites.

Loading next visibility...
Identifier
60415, 2024-141T
Orbit
LEO
Last TLE update
5 hours ago
Origin
Manufacturer
SpaceX/Seattle
Mission
Operational Commercial Communications
Bus & Motor
STARLINK V2M, Unknown motor
Mass
730 kg wet, ~700 kg dry
Launch date (UTC)
2024-08-10 (11 months ago)
Launch vehicle
FALCON 9
Launch site
Air Force Eastern Test Range (AFETR)
Object type
Payload
Rocket body
Debris
Shape & HBR
Box + 2 Pan, 29 m
Radar Cross Section
36.964 m², Large (>1 m²)

Expand to show TLE details & history

TLE from 5 hours ago
0 STARLINK-32265
1 60415U 24141T   25186.56799969 -.00000093  00000-0  89778-5 0  9997
2 60415  53.1600 310.5533 0001113  72.0592 288.0530 15.30193488 51738
Epoch: 2025-07-05T13:37Z
TLE epoch observation values (Epoch: 2025-07-05T13:37:55.173Z)
Latitude
-0.00001°
Longitude
-177.73077°
Altitude
475.898 km
Speed
7.629 km/s
True Right ascension
20h 42m 12s
True Declination
0° 00' 00"
Sunlit
Object was in full shadow at epoch
Visualization orbit readout
Latitude
46.74524°
Longitude
-126.33518°
Altitude
479.556 km
Speed
7.632 km/s
Apparent Right ascension
21h 16m 07s
Apparent Declination
7° 10' 46"
Sunlit
Object is in daylight
Visualization observer readout
Local Sidereal Time
06:32:39
Azimuth
311.646° NW
Elevation
-29.688°
Doppler factor
1
Orbital elements
Apogee altitude
476.254 km
Perigee altitude
474.728 km
Semi-major axis
6,853.628 km
Eccentricity
0.00011
Inclination
53.16°
RAAN
310.5533°
Arg. of periapsis
72.0592°
True anomaly
Unknown
Mean anomaly
288.053°
Eccentric anomaly
Unknown
Mean motion
3.82527 °/min
Orbital period
94.11 mins
BSTAR
0.0000089778
Loading maneuver chart data...
Loading SW <> Apogee altitude chart data...
Loading historical data...
Loading historical data...
Loading historical data...
Loading historical data...
Loading historical data...
Loading historical data...
Loading historical data...

STARLINK-32265 Visibility forecast

Observer location: undefined°, undefined°

Span
Click to sort rows by Start time (UTC) header in descending order
Start Az.
Max El. time (UTC)
Max El. Az.
Max El.
End time (UTC)
End Az.
6 mins2025-07-05 18:52:05.256Z287.149° WNW2025-07-05 18:55:05.256Z219.98° SW26.994°2025-07-05 18:58:05.256Z165.097° S
4 mins2025-07-06 10:11:05.256Z173.833° S2025-07-06 10:13:05.256Z119.047° SE25.296°2025-07-06 10:15:05.256Z77.997° E
4 mins2025-07-06 11:49:05.256Z282.98° WNW2025-07-06 11:50:05.256Z311.041° NW28.89°2025-07-06 11:53:05.256Z29.071° NE
4 mins2025-07-06 16:46:05.256Z351.224° N2025-07-06 16:47:05.256Z17.745° NNE25.897°2025-07-06 16:50:05.256Z87.328° E
5 mins2025-07-06 18:23:05.256Z286.023° WNW2025-07-06 18:25:05.256Z239.679° WSW30.212°2025-07-06 18:28:05.256Z164.125° S
|